Waukegan, IL

1:18 AM CDT on March 25, 2017 (GMT -0500)
Waukegan Regional

Weather History for KUGN - May, 2013

Change the Weather History Date:

Thursday, May 9, 2013

  Actual Average Record
Temperature  
Mean Temperature 55 °F -  
Max Temperature 66 °F 64 °F 82 °F (2003)
Min Temperature 44 °F 44 °F 35 °F (2008)
Degree Days  
Heating Degree Days 10 12  
Month to date heating degree days 94 114  
Since 1 July heating degree days 6394 6556  
Cooling Degree Days 0 0  
Month to date cooling degree days 0 0  
Year to date cooling degree days 8 4  
Growing Degree Days 4 (Base 50)    
Moisture  
Dew Point 46 °F    
Average Humidity 78    
Maximum Humidity 100    
Minimum Humidity 56    
Precipitation  
Precipitation 0.29 in 0.13 in 0.61 in (2005)
Month to date precipitation 0.50 1.14  
Year to date precipitation 11.62 9.99  
Sea Level Pressure  
Sea Level Pressure 29.93 in    
Wind  
Wind Speed 6 mph (NE)    
Max Wind Speed 16 mph    
Max Gust Speed 26 mph    
Visibility 8 miles    
Events Rain    
T = Trace of Precipitation, MM = Missing Value Source: NWS Daily Summary

Daily Weather History Graph

Daily Weather History Graph

Search for Another Location

Airport or City:

Trip Planner

Search our weather history database for the weather conditions in past years. The results will help you decide how hot, cold, wet, or windy it might be!

Date:

Astronomy

May. 09, 2013 Rise Set
Actual Time 5:36 AM CDT 8:00 PM CDT
Civil Twilight 5:04 AM CDT 8:32 PM CDT
Nautical Twilight 4:25 AM CDT 9:11 PM CDT
Astronomical Twilight 3:41 AM CDT 9:55 PM CDT
Moon 5:21 AM CDT (5/9) 7:55 PM CDT (5/9)
Length of Visible Light 15h 27m
Length of Day
14h 24m
Waning Crescent, 0% of the Moon is Illuminated
May 9
Waning Crescent
May 9
New
May 17
First Quarter
May 24
Full
May 31
Last Quarter

Hourly Weather History & Observations

Time (CDT) Temp. Windchill Dew Point Humidity Pressure Visibility Wind Dir Wind Speed Gust Speed Precip Events Conditions
12:52 AM 52.0 °F - 41.0 °F 66% 29.95 in 10.0 mi South 3.5 mph - N/A   Clear
1:52 AM 50.0 °F - 39.9 °F 68% 29.95 in 10.0 mi Calm Calm - N/A   Clear
2:52 AM 48.9 °F - 42.1 °F 77% 29.95 in 10.0 mi Calm Calm - N/A   Clear
3:52 AM 50.0 °F - 44.1 °F 80% 29.94 in 10.0 mi Calm Calm - N/A   Clear
4:52 AM 50.0 °F - 44.1 °F 80% 29.94 in 10.0 mi Calm Calm - N/A   Clear
5:52 AM 54.0 °F - 46.0 °F 75% 29.94 in 10.0 mi Calm Calm - N/A   Clear
6:52 AM 55.0 °F - 46.9 °F 74% 29.95 in 9.0 mi NE 3.5 mph - N/A   Clear
7:52 AM 57.0 °F - 48.9 °F 74% 29.97 in 10.0 mi East 3.5 mph - N/A   Clear
8:52 AM 54.0 °F - 42.1 °F 64% 29.97 in 10.0 mi East 8.1 mph - N/A   Mostly Cloudy
9:52 AM 55.0 °F - 44.1 °F 67% 29.96 in 10.0 mi ESE 4.6 mph - 0.00 in   Mostly Cloudy
10:52 AM 60.1 °F - 46.0 °F 60% 29.96 in 10.0 mi SE 6.9 mph - N/A   Overcast
11:52 AM 64.9 °F - 48.0 °F 54% 29.95 in 10.0 mi North - - N/A   Mostly Cloudy
1:52 PM 64.9 °F - 48.9 °F 56% 29.92 in 10.0 mi East 5.8 mph - N/A   Scattered Clouds
3:52 PM 63.0 °F - 48.9 °F 60% 29.89 in 10.0 mi Calm Calm - 0.00 in   Overcast
4:44 PM 59.0 °F - 53.6 °F 82% 29.91 in 2.0 mi Calm Calm - 0.03 in Rain Light Rain
4:52 PM 60.1 °F - 55.0 °F 83% 29.91 in 4.0 mi Calm Calm - 0.03 in Rain Light Rain
5:52 PM 55.9 °F - 55.0 °F 97% 29.89 in 3.0 mi NNE 5.8 mph - 0.02 in Rain Light Rain
7:38 PM 48.2 °F - 44.6 °F 87% 29.90 in 6.0 mi NNE 10.4 mph 18.4 mph 0.01 in Rain Light Rain
7:52 PM 46.9 °F - 44.1 °F 90% 29.90 in 7.0 mi NNE 11.5 mph - 0.01 in Rain Light Rain
9:52 PM 44.1 °F 37.7 °F 43.0 °F 96% 29.91 in 8.0 mi NNE 12.7 mph 18.4 mph 0.03 in Rain Light Rain
10:00 PM 44.6 °F 38.4 °F 42.8 °F 93% 29.90 in 6.0 mi NNE 12.7 mph 19.6 mph 0.01 in Rain Light Rain
10:44 PM 44.6 °F 39.2 °F 42.8 °F 93% 29.88 in 5.0 mi North 10.4 mph 18.4 mph 0.05 in Rain Light Rain
10:52 PM 44.1 °F 38.1 °F 43.0 °F 96% 29.89 in 5.0 mi NNE 11.5 mph 19.6 mph 0.06 in Rain Light Rain
11:02 PM 44.6 °F 38.4 °F 42.8 °F 93% 29.88 in 5.0 mi NNE 12.7 mph 19.6 mph 0.02 in Rain Rain